HULIANWAN GAOGUI-01 (H*)

Last updated on Thu Nov 21 2024 00:02:45 GMT+0000 (Coordinated Universal Time)

1 59069U 24040A 24324.57757546 .00000157 00000+0 00000+0 0 9991 2 59069 0.0552 50.5348 0007846 267.7085 342.4429 1.00270125 1566
UTC large
Height (km)
Speed (km/s)
/
Latitude / Longitude
Inclination (degrees)
Orbital Period (minutes)
Azimuth
Elevation
Range (km)
Doppler Factor

Next 0 passes for location: London (51.5072 / 0.1276)

Sorry there are no passes over London.